| time (UTC) | temp F | wind direction | speed MPH | gust MPH | rain 1hr in | rain 24hr in | rain mn in | humidity % | barometer mb |
| 20260504050535 | 49 | 203 | 6.0 | 9.0 | 0.00 | 0.00 | 0.00 | 69 | 1009.4 |
| 20260504045515 | 48 | 203 | 6.0 | 9.0 | 0.00 | 0.00 | 0.00 | 69 | 1009.4 |
| 20260504044535 | 49 | 203 | 4.0 | 9.0 | 0.00 | 0.00 | 0.00 | 70 | 1009.5 |
| 20260504043515 | 49 | 203 | 5.0 | 8.0 | 0.00 | 0.00 | 0.00 | 70 | 1009.6 |
| 20260504042515 | 49 | 203 | 4.0 | 8.0 | 0.00 | 0.00 | 0.00 | 69 | 1009.8 |
| 20260504041515 | 49 | 180 | 2.0 | 4.0 | 0.00 | 0.00 | 0.00 | 68 | 1009.8 |
| 20260504040616 | 49 | 180 | 3.0 | 5.0 | 0.00 | 0.00 | 0.00 | 67 | 1009.8 |
| 20260504035517 | 50 | 180 | 4.0 | 7.0 | 0.00 | 0.00 | 0.00 | 67 | 1009.9 |
| 20260504034537 | 50 | 180 | 3.0 | 5.0 | 0.00 | 0.00 | 0.00 | 67 | 1010.1 |
| 20260504033517 | 50 | 180 | 3.0 | 6.0 | 0.00 | 0.00 | 0.00 | 66 | 1010.2 |
| 20260504032517 | 50 | 180 | 4.0 | 7.0 | 0.00 | 0.00 | 0.00 | 66 | 1010.1 |
| 20260504031517 | 51 | 180 | 5.0 | 8.0 | 0.00 | 0.00 | 0.00 | 66 | 1010.2 |
| 20260504030517 | 51 | 180 | 4.0 | 8.0 | 0.00 | 0.00 | 0.00 | 65 | 1010.2 |
| 20260504025517 | 51 | 203 | 5.0 | 9.0 | 0.00 | 0.00 | 0.00 | 64 | 1010.2 |
| 20260504024517 | 51 | 203 | 5.0 | 8.0 | 0.00 | 0.00 | 0.00 | 64 | 1010.3 |
| 20260504023517 | 51 | 203 | 6.0 | 8.0 | 0.00 | 0.00 | 0.00 | 64 | 1010.4 |
| 20260504022517 | 51 | 203 | 6.0 | 12.0 | 0.00 | 0.00 | 0.00 | 63 | 1010.5 |
| 20260504021517 | 51 | 203 | 6.0 | 10.0 | 0.00 | 0.00 | 0.00 | 62 | 1010.4 |
| 20260504020517 | 51 | 203 | 6.0 | 10.0 | 0.00 | 0.00 | 0.00 | 63 | 1010.6 |
| 20260504015517 | 51 | 203 | 5.0 | 9.0 | 0.00 | 0.00 | 0.00 | 63 | 1010.6 |
| 20260504014517 | 51 | 225 | 8.0 | 13.0 | 0.00 | 0.00 | 0.00 | 62 | 1010.6 |
| 20260504013537 | 51 | 225 | 8.0 | 15.0 | 0.00 | 0.00 | 0.00 | 62 | 1010.6 |
| 20260504012517 | 51 | 225 | 9.0 | 15.0 | 0.00 | 0.00 | 0.00 | 64 | 1010.6 |
| 20260504011517 | 51 | 225 | 9.0 | 15.0 | 0.00 | 0.00 | 0.00 | 63 | 1010.4 |
| 20260504010537 | 52 | 248 | 12.0 | 20.0 | 0.00 | 0.00 | 0.00 | 61 | 1010.4 |
| 20260504005517 | 53 | 248 | 11.0 | 16.0 | 0.00 | 0.00 | 0.00 | 55 | 1010.4 |
| 20260504004537 | 54 | 203 | 3.0 | 8.0 | 0.00 | 0.00 | 0.00 | 49 | 1009.8 |
| 20260504003517 | 54 | 225 | 4.0 | 8.0 | 0.00 | 0.00 | 0.00 | 48 | 1009.7 |
| 20260504002517 | 55 | 203 | 3.0 | 5.0 | 0.00 | 0.00 | 0.00 | 48 | 1009.8 |
| 20260504001517 | 56 | 203 | 6.0 | 9.0 | 0.00 | 0.00 | 0.00 | 45 | 1009.7 |
| 20260504000517 | 56 | 225 | 9.0 | 17.0 | 0.00 | 0.00 | 0.00 | 45 | 1009.8 |
| 20260503235517 | 57 | 225 | 8.0 | 14.0 | 0.00 | 0.00 | 0.00 | 45 | 1009.8 |
| 20260503234537 | 57 | 225 | 7.0 | 13.0 | 0.00 | 0.00 | 0.00 | 44 | 1009.9 |
| 20260503233517 | 57 | 225 | 9.0 | 14.0 | 0.00 | 0.00 | 0.00 | 44 | 1009.9 |
| 20260503232554 | 57 | 203 | 9.0 | 16.0 | 0.00 | 0.00 | 0.00 | 44 | 1009.9 |
| 20260503231537 | 57 | 225 | 7.0 | 11.0 | 0.00 | 0.00 | 0.00 | 44 | 1009.9 |
| 20260503230517 | 58 | 225 | 9.0 | 14.0 | 0.00 | 0.00 | 0.00 | 44 | 1010.0 |
| 20260503225517 | 57 | 225 | 10.0 | 15.0 | 0.00 | 0.00 | 0.00 | 43 | 1010.0 |
| 20260503224517 | 58 | 225 | 12.0 | 21.0 | 0.00 | 0.00 | 0.00 | 43 | 1010.0 |
| 20260503223517 | 58 | 225 | 11.0 | 17.0 | 0.00 | 0.00 | 0.00 | 42 | 1010.0 |
| 20260503222517 | 58 | 225 | 12.0 | 19.0 | 0.00 | 0.00 | 0.00 | 44 | 1010.2 |
| 20260503221517 | 58 | 225 | 10.0 | 19.0 | 0.00 | 0.00 | 0.00 | 43 | 1010.3 |
| 20260503220517 | 59 | 225 | 12.0 | 21.0 | 0.00 | 0.00 | 0.00 | 42 | 1010.4 |
| 20260503215538 | 59 | 225 | 11.0 | 18.0 | 0.00 | 0.00 | 0.00 | 43 | 1010.3 |
| 20260503214517 | 59 | 225 | 13.0 | 20.0 | 0.00 | 0.00 | 0.00 | 43 | 1010.3 |
| 20260503213518 | 59 | 225 | 13.0 | 20.0 | 0.00 | 0.00 | 0.00 | 44 | 1010.4 |
| 20260503212517 | 58 | 225 | 13.0 | 22.0 | 0.00 | 0.00 | 0.00 | 43 | 1010.5 |
| 20260503211537 | 59 | 225 | 14.0 | 25.0 | 0.00 | 0.00 | 0.00 | 43 | 1010.5 |
| 20260503210517 | 59 | 248 | 11.0 | 16.0 | 0.00 | 0.00 | 0.00 | 44 | 1010.5 |
| 20260503205517 | 59 | 225 | 14.0 | 21.0 | 0.00 | 0.00 | 0.00 | 41 | 1010.5 |
| 20260503204517 | 60 | 248 | 12.0 | 21.0 | 0.00 | 0.00 | 0.00 | 44 | 1010.6 |
| 20260503203537 | 60 | 248 | 14.0 | 22.0 | 0.00 | 0.00 | 0.00 | 42 | 1010.6 |
| 20260503202517 | 59 | 248 | 13.0 | 19.0 | 0.00 | 0.00 | 0.00 | 43 | 1010.7 |
| 20260503201517 | 59 | 225 | 12.0 | 21.0 | 0.00 | 0.00 | 0.00 | 44 | 1010.7 |
| 20260503200517 | 59 | 225 | 11.0 | 19.0 | 0.00 | 0.00 | 0.00 | 43 | 1010.9 |
| 20260503195537 | 59 | 225 | 11.0 | 18.0 | 0.00 | 0.00 | 0.00 | 40 | 1011.0 |
| 20260503194517 | 59 | 248 | 12.0 | 18.0 | 0.00 | 0.00 | 0.00 | 45 | 1011.2 |
| 20260503193517 | 59 | 225 | 10.0 | 18.0 | 0.00 | 0.00 | 0.00 | 43 | 1011.5 |
| 20260503192517 | 59 | 225 | 9.0 | 14.0 | 0.00 | 0.00 | 0.00 | 43 | 1011.6 |
| 20260503191517 | 58 | 225 | 9.0 | 15.0 | 0.00 | 0.00 | 0.00 | 46 | 1011.8 |
| 20260503190517 | 58 | 225 | 13.0 | 21.0 | 0.00 | 0.00 | 0.00 | 43 | 1011.9 |
| 20260503185517 | 58 | 225 | 13.0 | 20.0 | 0.00 | 0.00 | 0.00 | 44 | 1012.1 |
| 20260503184517 | 59 | 225 | 12.0 | 18.0 | 0.00 | 0.00 | 0.00 | 46 | 1012.2 |
| 20260503183517 | 59 | 225 | 13.0 | 21.0 | 0.00 | 0.00 | 0.00 | 42 | 1012.3 |
| 20260503182537 | 59 | 225 | 14.0 | 20.0 | 0.00 | 0.00 | 0.00 | 42 | 1012.6 |
| 20260503182038 | 58 | 248 | 13.0 | 22.0 | 0.00 | 0.00 | 0.00 | 44 | 1012.7 |
| 20260503181017 | 59 | 225 | 13.0 | 22.0 | 0.00 | 0.00 | 0.00 | 47 | 1012.8 |
| 20260503180017 | 58 | 225 | 12.0 | 20.0 | 0.00 | 0.00 | 0.00 | 45 | 1012.8 |
| 20260503175037 | 58 | 225 | 13.0 | 22.0 | 0.00 | 0.00 | 0.00 | 44 | 1012.9 |
| 20260503174037 | 57 | 225 | 13.0 | 20.0 | 0.00 | 0.00 | 0.00 | 45 | 1013.0 |
| 20260503173017 | 58 | 225 | 12.0 | 20.0 | 0.00 | 0.00 | 0.00 | 49 | 1013.2 |
| 20260503172018 | 57 | 248 | 11.0 | 16.0 | 0.00 | 0.00 | 0.00 | 51 | 1013.2 |
| 20260503171037 | 57 | 225 | 12.0 | 19.0 | 0.00 | 0.00 | 0.00 | 50 | 1013.5 |
| 20260503130636 | 45 | 225 | 7.0 | 11.0 | 0.00 | 0.00 | 0.00 | 55 | 1014.9 |
| 20260503110515 | 36 | 203 | 3.0 | 5.0 | 0.00 | 0.00 | 0.00 | 80 | 1014.1 |
| 20260503081016 | 35 | 225 | 3.0 | 4.0 | 0.00 | 0.00 | 0.00 | 83 | 1013.8 |